contact:dominique.lefevre@mio.osupytheas.fr, maurice.libes@osupytheas.fr, didier.mallarino@osupytheas.fr
Project:EMSO http://www.emso-fr.org/EMSO-France
Depth: 2436.0 m
Title:EMSO Ligure Ouest : Data MII capteur CSTAR
DateTime,Latitude,Longitude,Instrument_Serial,Reference_Counts,Signal_Counts,Corrected_Signal_raw_counts,Calculated_Beam_c_inverse_meters,Internal_thermistor_counts
DateTime,Latitude,Longitude,Instrument_Serial,Reference_Counts,Signal_Counts,Corrected_Signal_raw_counts,Calculated_Beam_c_inverse_meters,Internal_thermistor_counts
2022-08-13T00:00:48,42.805,6.029,CST-1368DR,4619,5280,12174,0.996,551
2022-08-13T00:03:50,42.805,6.029,CST-1368DR,4619,5281,12175,0.996,551
2022-08-13T00:06:51,42.805,6.029,CST-1368DR,4619,5280,12172,0.997,551
2022-08-13T00:09:53,42.805,6.029,CST-1368DR,4619,5280,12173,0.996,551
2022-08-13T00:12:54,42.805,6.029,CST-1368DR,4619,5282,12177,0.995,551
2022-08-13T00:15:56,42.805,6.029,CST-1368DR,4619,5280,12172,0.997,551
2022-08-13T00:18:58,42.805,6.029,CST-1368DR,4619,5279,12171,0.997,551
2022-08-13T00:21:59,42.805,6.029,CST-1368DR,4619,5280,12173,0.996,551
2022-08-13T00:25:01,42.805,6.029,CST-1368DR,4619,5279,12170,0.997,551
2022-08-13T00:28:02,42.805,6.029,CST-1368DR,4619,5281,12175,0.996,551
2022-08-13T00:31:04,42.805,6.029,CST-1368DR,4619,5282,12177,0.995,551
2022-08-13T00:34:06,42.805,6.029,CST-1368DR,4619,5281,12174,0.996,551
2022-08-13T00:37:07,42.805,6.029,CST-1368DR,4619,5280,12172,0.997,551
2022-08-13T00:40:09,42.805,6.029,CST-1368DR,4619,5282,12177,0.995,551
2022-08-13T00:43:10,42.805,6.029,CST-1368DR,4619,5281,12174,0.996,551
2022-08-13T00:46:12,42.805,6.029,CST-1368DR,4619,5279,12171,0.997,551
2022-08-13T00:49:13,42.805,6.029,CST-1368DR,4619,5279,12171,0.997,551
2022-08-13T00:52:15,42.805,6.029,CST-1368DR,4619,5278,12168,0.998,551
2022-08-13T00:55:17,42.805,6.029,CST-1368DR,4619,5279,12170,0.997,551
2022-08-13T00:58:18,42.805,6.029,CST-1368DR,4619,5280,12174,0.996,551
2022-08-13T01:01:20,42.805,6.029,CST-1368DR,4619,5280,12174,0.996,551
2022-08-13T01:04:21,42.805,6.029,CST-1368DR,4619,5279,12171,0.997,551
2022-08-13T01:07:23,42.805,6.029,CST-1368DR,4619,5277,12166,0.999,551
2022-08-13T01:10:24,42.805,6.029,CST-1368DR,4619,5278,12167,0.998,551
2022-08-13T01:13:26,42.805,6.029,CST-1368DR,4619,5280,12173,0.996,551
2022-08-13T01:16:28,42.805,6.029,CST-1368DR,4619,5279,12170,0.997,551
2022-08-13T01:19:29,42.805,6.029,CST-1368DR,4619,5278,12169,0.998,551
2022-08-13T01:22:31,42.805,6.029,CST-1368DR,4619,5279,12171,0.997,551
2022-08-13T01:25:32,42.805,6.029,CST-1368DR,4619,5280,12172,0.997,551
2022-08-13T01:28:34,42.805,6.029,CST-1368DR,4619,5279,12171,0.997,551
2022-08-13T01:31:35,42.805,6.029,CST-1368DR,4619,5279,12171,0.997,551
2022-08-13T01:34:37,42.805,6.029,CST-1368DR,4619,5280,12172,0.997,551
2022-08-13T01:37:39,42.805,6.029,CST-1368DR,4619,5279,12171,0.997,551
2022-08-13T01:40:40,42.805,6.029,CST-1368DR,4619,5280,12172,0.997,551
2022-08-13T01:43:42,42.805,6.029,CST-1368DR,4619,5280,12174,0.996,551
2022-08-13T01:46:43,42.805,6.029,CST-1368DR,4619,5280,12174,0.996,551
2022-08-13T01:49:45,42.805,6.029,CST-1368DR,4619,5279,12170,0.997,551
2022-08-13T01:52:47,42.805,6.029,CST-1368DR,4619,5279,12170,0.997,551
2022-08-13T01:55:48,42.805,6.029,CST-1368DR,4619,5282,12177,0.995,551
2022-08-13T01:58:50,42.805,6.029,CST-1368DR,4619,5281,12175,0.996,551
2022-08-13T02:01:51,42.805,6.029,CST-1368DR,4619,5282,12177,0.995,551
2022-08-13T02:04:53,42.805,6.029,CST-1368DR,4619,5279,12171,0.997,551
2022-08-13T02:07:54,42.805,6.029,CST-1368DR,4618,5280,12175,0.996,551
2022-08-13T02:10:56,42.805,6.029,CST-1368DR,4619,5281,12175,0.996,551
2022-08-13T02:13:58,42.805,6.029,CST-1368DR,4619,5281,12175,0.996,551
2022-08-13T02:16:59,42.805,6.029,CST-1368DR,4619,5281,12175,0.996,551
2022-08-13T02:20:01,42.805,6.029,CST-1368DR,4619,5282,12177,0.995,551
2022-08-13T02:23:02,42.805,6.029,CST-1368DR,4619,5276,12164,0.999,551
2022-08-13T02:26:04,42.805,6.029,CST-1368DR,4619,5281,12174,0.996,551
2022-08-13T02:29:06,42.805,6.029,CST-1368DR,4619,5282,12177,0.995,551
2022-08-13T02:32:07,42.805,6.029,CST-1368DR,4619,5281,12174,0.996,551
2022-08-13T02:35:09,42.805,6.029,CST-1368DR,4619,5281,12174,0.996,551
2022-08-13T02:38:10,42.805,6.029,CST-1368DR,4619,5281,12175,0.996,551
2022-08-13T02:41:12,42.805,6.029,CST-1368DR,4619,5282,12178,0.995,551
2022-08-13T02:44:13,42.805,6.029,CST-1368DR,4619,5283,12179,0.994,551
2022-08-13T02:47:15,42.805,6.029,CST-1368DR,4619,5282,12177,0.995,551
2022-08-13T02:50:17,42.805,6.029,CST-1368DR,4619,5282,12177,0.995,551
2022-08-13T02:53:18,42.805,6.029,CST-1368DR,4619,5282,12178,0.995,551
2022-08-13T02:56:20,42.805,6.029,CST-1368DR,4619,5282,12177,0.995,551
2022-08-13T02:59:21,42.805,6.029,CST-1368DR,4619,5281,12175,0.996,551
2022-08-13T03:02:23,42.805,6.029,CST-1368DR,4619,5283,12179,0.994,551
2022-08-13T03:05:24,42.805,6.029,CST-1368DR,4619,5282,12177,0.995,551
2022-08-13T03:08:26,42.805,6.029,CST-1368DR,4619,5280,12174,0.996,551
2022-08-13T03:11:28,42.805,6.029,CST-1368DR,4619,5281,12175,0.996,551
2022-08-13T03:14:29,42.805,6.029,CST-1368DR,4619,5280,12172,0.997,551
2022-08-13T03:17:31,42.805,6.029,CST-1368DR,4619,5280,12174,0.996,551
2022-08-13T03:20:32,42.805,6.029,CST-1368DR,4619,5283,12180,0.994,551
2022-08-13T03:23:34,42.805,6.029,CST-1368DR,4619,5281,12175,0.996,551
2022-08-13T03:26:36,42.805,6.029,CST-1368DR,4619,5282,12178,0.995,551
2022-08-13T03:29:37,42.805,6.029,CST-1368DR,4619,5283,12181,0.994,551
2022-08-13T03:32:39,42.805,6.029,CST-1368DR,4619,5283,12179,0.994,551
2022-08-13T03:35:40,42.805,6.029,CST-1368DR,4619,5280,12174,0.996,551
2022-08-13T03:38:42,42.805,6.029,CST-1368DR,4619,5282,12178,0.995,551
2022-08-13T03:41:43,42.805,6.029,CST-1368DR,4619,5283,12179,0.994,551
2022-08-13T03:44:45,42.805,6.029,CST-1368DR,4619,5282,12177,0.995,551
2022-08-13T03:47:47,42.805,6.029,CST-1368DR,4619,5283,12181,0.994,551
2022-08-13T03:50:48,42.805,6.029,CST-1368DR,4619,5283,12179,0.994,551
2022-08-13T03:53:50,42.805,6.029,CST-1368DR,4619,5282,12178,0.995,551
2022-08-13T03:56:51,42.805,6.029,CST-1368DR,4619,5281,12175,0.996,551
2022-08-13T03:59:53,42.805,6.029,CST-1368DR,4619,5282,12177,0.995,551
2022-08-13T04:02:54,42.805,6.029,CST-1368DR,4619,5282,12178,0.995,551
2022-08-13T04:05:56,42.805,6.029,CST-1368DR,4619,5280,12173,0.996,551
2022-08-13T04:08:58,42.805,6.029,CST-1368DR,4619,5282,12177,0.995,551
2022-08-13T04:11:59,42.805,6.029,CST-1368DR,4619,5281,12175,0.996,551
2022-08-13T04:15:01,42.805,6.029,CST-1368DR,4618,5282,12179,0.994,551
2022-08-13T04:18:02,42.805,6.029,CST-1368DR,4619,5281,12175,0.996,551
2022-08-13T04:21:04,42.805,6.029,CST-1368DR,4619,5283,12179,0.994,551
2022-08-13T04:24:06,42.805,6.029,CST-1368DR,4619,5281,12174,0.996,551
2022-08-13T04:27:07,42.805,6.029,CST-1368DR,4619,5282,12177,0.995,551
2022-08-13T04:30:09,42.805,6.029,CST-1368DR,4618,5281,12178,0.995,551
2022-08-13T04:33:10,42.805,6.029,CST-1368DR,4619,5281,12174,0.996,551
2022-08-13T04:36:12,42.805,6.029,CST-1368DR,4618,5195,11980,01.060,551
2022-08-13T04:39:13,42.805,6.029,CST-1368DR,4618,5282,12179,0.994,551
2022-08-13T04:42:15,42.805,6.029,CST-1368DR,4619,5281,12175,0.996,551
2022-08-13T04:45:17,42.805,6.029,CST-1368DR,4619,5280,12172,0.997,551
2022-08-13T04:48:18,42.805,6.029,CST-1368DR,4618,5280,12176,0.995,551
2022-08-13T04:51:20,42.805,6.029,CST-1368DR,4618,5282,12179,0.994,551
2022-08-13T04:54:21,42.805,6.029,CST-1368DR,4618,5279,12174,0.996,551
2022-08-13T04:57:23,42.805,6.029,CST-1368DR,4618,5280,12174,0.996,551
2022-08-13T05:00:24,42.805,6.029,CST-1368DR,4618,5282,12179,0.994,551
2022-08-13T05:03:26,42.805,6.029,CST-1368DR,4617,5151,11881,01.093,551
2022-08-13T05:06:28,42.805,6.029,CST-1368DR,4618,5280,12174,0.996,551
2022-08-13T05:09:29,42.805,6.029,CST-1368DR,4618,5279,12174,0.996,551
2022-08-13T05:12:31,42.805,6.029,CST-1368DR,4618,5280,12175,0.996,551
2022-08-13T05:15:32,42.805,6.029,CST-1368DR,4618,5280,12175,0.996,551
2022-08-13T05:18:34,42.805,6.029,CST-1368DR,4618,5280,12174,0.996,551
2022-08-13T05:21:36,42.805,6.029,CST-1368DR,4618,5280,12176,0.995,551
2022-08-13T05:24:37,42.805,6.029,CST-1368DR,4618,5278,12170,0.997,551
2022-08-13T05:27:39,42.805,6.029,CST-1368DR,4618,5279,12172,0.997,551
2022-08-13T05:30:40,42.805,6.029,CST-1368DR,4618,5279,12173,0.996,551
2022-08-13T05:33:42,42.805,6.029,CST-1368DR,4618,5278,12171,0.997,551
2022-08-13T05:36:43,42.805,6.029,CST-1368DR,4618,5278,12170,0.997,551
2022-08-13T05:39:45,42.805,6.029,CST-1368DR,4618,5278,12171,0.997,551
2022-08-13T05:42:47,42.805,6.029,CST-1368DR,4618,5277,12169,0.998,551
2022-08-13T05:45:48,42.805,6.029,CST-1368DR,4618,5279,12173,0.996,551
2022-08-13T05:48:50,42.805,6.029,CST-1368DR,4618,5278,12170,0.997,551
2022-08-13T05:51:51,42.805,6.029,CST-1368DR,4618,5279,12172,0.997,551
2022-08-13T05:54:53,42.805,6.029,CST-1368DR,4618,5276,12167,0.998,551
2022-08-13T05:57:54,42.805,6.029,CST-1368DR,4618,5276,12166,0.999,551
2022-08-13T06:00:56,42.805,6.029,CST-1368DR,4618,5277,12169,0.998,551
2022-08-13T06:03:58,42.805,6.029,CST-1368DR,4618,5278,12171,0.997,551
2022-08-13T06:06:59,42.805,6.029,CST-1368DR,4618,5279,12173,0.996,551
2022-08-13T06:10:01,42.805,6.029,CST-1368DR,4618,5280,12174,0.996,551
2022-08-13T06:13:02,42.805,6.029,CST-1368DR,4618,5238,12079,01.027,551
2022-08-13T06:16:04,42.805,6.029,CST-1368DR,4618,5232,12065,01.032,551
2022-08-13T06:19:06,42.805,6.029,CST-1368DR,4618,5237,12075,01.029,551
2022-08-13T06:22:07,42.805,6.029,CST-1368DR,4618,5242,12087,01.025,551
2022-08-13T06:25:09,42.805,6.029,CST-1368DR,4618,5243,12091,01.023,551
2022-08-13T06:28:10,42.805,6.029,CST-1368DR,4618,5239,12080,01.027,551
2022-08-13T06:31:12,42.805,6.029,CST-1368DR,4618,5238,12079,01.027,551
2022-08-13T06:34:13,42.805,6.029,CST-1368DR,4618,5239,12080,01.027,551
2022-08-13T06:37:15,42.805,6.029,CST-1368DR,4618,5237,12076,01.028,551
2022-08-13T06:40:17,42.805,6.029,CST-1368DR,4618,5236,12074,01.029,551
2022-08-13T06:43:18,42.805,6.029,CST-1368DR,4618,5234,12070,01.030,551
2022-08-13T06:46:20,42.805,6.029,CST-1368DR,4618,5236,12074,01.029,551
2022-08-13T06:49:21,42.805,6.029,CST-1368DR,4618,5237,12076,01.028,551
2022-08-13T06:52:23,42.805,6.029,CST-1368DR,4618,5238,12078,01.028,551
2022-08-13T06:55:24,42.805,6.029,CST-1368DR,4618,5233,12068,01.031,551
2022-08-13T06:58:26,42.805,6.029,CST-1368DR,4618,5237,12076,01.028,551
2022-08-13T07:01:28,42.805,6.029,CST-1368DR,4618,5238,12078,01.028,551
2022-08-13T07:04:29,42.805,6.029,CST-1368DR,4618,5237,12076,01.028,551
2022-08-13T07:07:31,42.805,6.029,CST-1368DR,4618,5232,12065,01.032,551
2022-08-13T07:10:32,42.805,6.029,CST-1368DR,4618,5237,12075,01.029,551
2022-08-13T07:13:34,42.805,6.029,CST-1368DR,4618,5232,12065,01.032,551
2022-08-13T07:16:36,42.805,6.029,CST-1368DR,4618,5235,12071,01.030,551
2022-08-13T07:19:37,42.805,6.029,CST-1368DR,4618,5232,12064,01.032,551
2022-08-13T07:22:39,42.805,6.029,CST-1368DR,4618,5232,12065,01.032,551
2022-08-13T07:25:40,42.805,6.029,CST-1368DR,4618,5232,12064,01.032,551
2022-08-13T07:28:42,42.805,6.029,CST-1368DR,4618,5235,12071,01.030,551
2022-08-13T07:31:43,42.805,6.029,CST-1368DR,4618,5235,12072,01.030,551
2022-08-13T07:34:45,42.805,6.029,CST-1368DR,4618,5232,12064,01.032,551
2022-08-13T07:37:47,42.805,6.029,CST-1368DR,4618,5234,12068,01.031,551
2022-08-13T07:40:48,42.805,6.029,CST-1368DR,4618,5234,12068,01.031,551
2022-08-13T07:43:50,42.805,6.029,CST-1368DR,4618,5230,12060,01.034,551
2022-08-13T07:46:51,42.805,6.029,CST-1368DR,4618,5234,12068,01.031,551
2022-08-13T07:49:53,42.805,6.029,CST-1368DR,4618,5235,12071,01.030,551
2022-08-13T07:52:54,42.805,6.029,CST-1368DR,4618,5232,12064,01.032,551
2022-08-13T07:55:56,42.805,6.029,CST-1368DR,4618,5236,12075,01.029,551
2022-08-13T07:58:58,42.805,6.029,CST-1368DR,4618,5236,12073,01.029,551
2022-08-13T08:01:59,42.805,6.029,CST-1368DR,4618,5235,12072,01.030,551
2022-08-13T08:05:01,42.805,6.029,CST-1368DR,4618,5236,12074,01.029,551
2022-08-13T08:08:02,42.805,6.029,CST-1368DR,4618,5233,12067,01.031,551
2022-08-13T08:11:04,42.805,6.029,CST-1368DR,4618,5235,12071,01.030,551
2022-08-13T08:14:06,42.805,6.029,CST-1368DR,4618,5236,12075,01.029,551
2022-08-13T08:17:07,42.805,6.029,CST-1368DR,4618,5237,12075,01.029,551
2022-08-13T08:20:09,42.805,6.029,CST-1368DR,4618,5234,12069,01.031,551
2022-08-13T08:23:10,42.805,6.029,CST-1368DR,4618,5237,12075,01.029,551
2022-08-13T08:26:12,42.805,6.029,CST-1368DR,4618,5239,12080,01.027,551
2022-08-13T08:29:13,42.805,6.029,CST-1368DR,4618,5235,12071,01.030,551
2022-08-13T08:32:15,42.805,6.029,CST-1368DR,4618,5234,12068,01.031,551
2022-08-13T08:35:17,42.805,6.029,CST-1368DR,4618,5233,12067,01.031,551
2022-08-13T08:38:18,42.805,6.029,CST-1368DR,4618,5236,12074,01.029,551
2022-08-13T08:41:20,42.805,6.029,CST-1368DR,4618,5232,12065,01.032,551
2022-08-13T08:44:21,42.805,6.029,CST-1368DR,4618,5236,12074,01.029,551
2022-08-13T08:47:23,42.805,6.029,CST-1368DR,4618,5233,12068,01.031,551
2022-08-13T08:50:25,42.805,6.029,CST-1368DR,4618,5223,12044,01.039,551
2022-08-13T08:53:26,42.805,6.029,CST-1368DR,4618,5233,12066,01.032,551
2022-08-13T08:56:28,42.805,6.029,CST-1368DR,4618,5231,12062,01.033,551
2022-08-13T08:59:29,42.805,6.029,CST-1368DR,4618,5235,12071,01.030,551
2022-08-13T09:02:31,42.805,6.029,CST-1368DR,4618,5231,12062,01.033,551
2022-08-13T09:05:32,42.805,6.029,CST-1368DR,4618,5236,12073,01.029,551
2022-08-13T09:08:34,42.805,6.029,CST-1368DR,4618,5233,12067,01.031,551
2022-08-13T09:11:36,42.805,6.029,CST-1368DR,4618,5234,12068,01.031,551
2022-08-13T09:14:37,42.805,6.029,CST-1368DR,4618,5230,12061,01.033,551
2022-08-13T09:17:39,42.805,6.029,CST-1368DR,4618,5231,12062,01.033,551
2022-08-13T09:20:40,42.805,6.029,CST-1368DR,4618,5236,12074,01.029,551
2022-08-13T09:23:42,42.805,6.029,CST-1368DR,4618,5233,12067,01.031,551
2022-08-13T09:26:43,42.805,6.029,CST-1368DR,4618,5234,12069,01.031,551
2022-08-13T09:29:45,42.805,6.029,CST-1368DR,4618,5233,12067,01.031,551
2022-08-13T09:32:47,42.805,6.029,CST-1368DR,4618,5235,12072,01.030,551
2022-08-13T09:35:48,42.805,6.029,CST-1368DR,4618,5235,12072,01.030,551
2022-08-13T09:38:50,42.805,6.029,CST-1368DR,4618,5234,12070,01.030,551
2022-08-13T09:41:51,42.805,6.029,CST-1368DR,4618,5233,12068,01.031,551
2022-08-13T09:44:53,42.805,6.029,CST-1368DR,4618,5235,12071,01.030,551
2022-08-13T09:47:55,42.805,6.029,CST-1368DR,4618,5236,12074,01.029,551
2022-08-13T09:50:56,42.805,6.029,CST-1368DR,4618,5234,12069,01.031,551
2022-08-13T09:53:58,42.805,6.029,CST-1368DR,4618,5237,12075,01.029,551
2022-08-13T09:56:59,42.805,6.029,CST-1368DR,4618,5235,12072,01.030,551
2022-08-13T10:00:01,42.805,6.029,CST-1368DR,4618,5236,12073,01.029,551
2022-08-13T10:03:02,42.805,6.029,CST-1368DR,4618,5236,12073,01.029,551
2022-08-13T10:06:04,42.805,6.029,CST-1368DR,4618,5235,12072,01.030,551
2022-08-13T10:09:06,42.805,6.029,CST-1368DR,4618,5234,12068,01.031,551
2022-08-13T10:12:07,42.805,6.029,CST-1368DR,4618,5236,12074,01.029,551
2022-08-13T10:15:09,42.805,6.029,CST-1368DR,4618,5233,12067,01.031,551
2022-08-13T10:18:10,42.805,6.029,CST-1368DR,4618,5235,12072,01.030,551
2022-08-13T10:21:12,42.805,6.029,CST-1368DR,4618,5233,12067,01.031,551
2022-08-13T10:24:14,42.805,6.029,CST-1368DR,4618,5234,12068,01.031,551
2022-08-13T10:27:15,42.805,6.029,CST-1368DR,4618,5237,12076,01.028,551
2022-08-13T10:30:17,42.805,6.029,CST-1368DR,4618,5234,12069,01.031,551
2022-08-13T10:33:18,42.805,6.029,CST-1368DR,4618,5233,12067,01.031,551
2022-08-13T10:36:20,42.805,6.029,CST-1368DR,4618,5231,12062,01.033,551
2022-08-13T10:39:21,42.805,6.029,CST-1368DR,4618,5234,12068,01.031,551
2022-08-13T10:42:23,42.805,6.029,CST-1368DR,4618,5236,12073,01.029,551
2022-08-13T10:45:25,42.805,6.029,CST-1368DR,4618,5236,12073,01.029,551
2022-08-13T10:48:26,42.805,6.029,CST-1368DR,4618,5235,12072,01.030,551
2022-08-13T10:51:28,42.805,6.029,CST-1368DR,4618,5234,12068,01.031,551
2022-08-13T10:54:29,42.805,6.029,CST-1368DR,4618,5233,12066,01.032,551
2022-08-13T10:57:31,42.805,6.029,CST-1368DR,4618,5234,12070,01.030,551
2022-08-13T11:00:32,42.805,6.029,CST-1368DR,4618,5232,12064,01.032,551
2022-08-13T11:03:34,42.805,6.029,CST-1368DR,4618,5236,12074,01.029,551
2022-08-13T11:06:36,42.805,6.029,CST-1368DR,4618,5234,12069,01.031,551
2022-08-13T11:09:37,42.805,6.029,CST-1368DR,4618,5234,12069,01.031,551
2022-08-13T11:12:39,42.805,6.029,CST-1368DR,4618,5237,12076,01.028,551
2022-08-13T11:15:40,42.805,6.029,CST-1368DR,4618,5235,12071,01.030,551
2022-08-13T11:18:42,42.805,6.029,CST-1368DR,4618,5233,12066,01.032,551
2022-08-13T11:21:44,42.805,6.029,CST-1368DR,4618,5233,12066,01.032,551
2022-08-13T11:24:45,42.805,6.029,CST-1368DR,4618,5233,12067,01.031,551
2022-08-13T11:27:47,42.805,6.029,CST-1368DR,4618,5234,12068,01.031,551
2022-08-13T11:30:48,42.805,6.029,CST-1368DR,4618,5235,12071,01.030,551
2022-08-13T11:33:50,42.805,6.029,CST-1368DR,4618,5235,12071,01.030,551
2022-08-13T11:36:51,42.805,6.029,CST-1368DR,4618,5235,12071,01.030,551
2022-08-13T11:39:53,42.805,6.029,CST-1368DR,4618,5234,12070,01.030,551
2022-08-13T11:42:55,42.805,6.029,CST-1368DR,4618,5235,12071,01.030,551
2022-08-13T11:45:56,42.805,6.029,CST-1368DR,4618,5231,12063,01.033,551
2022-08-13T11:48:58,42.805,6.029,CST-1368DR,4618,5235,12072,01.030,551
2022-08-13T11:51:59,42.805,6.029,CST-1368DR,4618,5236,12073,01.029,551
2022-08-13T11:55:01,42.805,6.029,CST-1368DR,4618,5232,12065,01.032,551
2022-08-13T11:58:02,42.805,6.029,CST-1368DR,4618,5230,12060,01.034,551
2022-08-13T12:01:04,42.805,6.029,CST-1368DR,4618,5233,12067,01.031,551
2022-08-13T12:04:06,42.805,6.029,CST-1368DR,4618,5238,12078,01.028,551
2022-08-13T12:07:07,42.805,6.029,CST-1368DR,4618,5234,12070,01.030,551
2022-08-13T12:10:09,42.805,6.029,CST-1368DR,4618,5239,12080,01.027,551
2022-08-13T12:13:10,42.805,6.029,CST-1368DR,4618,5235,12072,01.030,551
2022-08-13T12:16:12,42.805,6.029,CST-1368DR,4618,5235,12072,01.030,551
2022-08-13T12:19:14,42.805,6.029,CST-1368DR,4618,5234,12068,01.031,551
2022-08-13T12:22:15,42.805,6.029,CST-1368DR,4618,5238,12078,01.028,551
2022-08-13T12:25:17,42.805,6.029,CST-1368DR,4618,5236,12073,01.029,551
2022-08-13T12:28:18,42.805,6.029,CST-1368DR,4618,5237,12075,01.029,551
2022-08-13T12:31:20,42.805,6.029,CST-1368DR,4618,5238,12078,01.028,551
2022-08-13T12:34:21,42.805,6.029,CST-1368DR,4618,5236,12074,01.029,551
2022-08-13T12:37:23,42.805,6.029,CST-1368DR,4618,5236,12074,01.029,551
2022-08-13T12:40:25,42.805,6.029,CST-1368DR,4618,5242,12087,01.025,551
2022-08-13T12:43:26,42.805,6.029,CST-1368DR,4618,5241,12084,01.026,551
2022-08-13T12:46:28,42.805,6.029,CST-1368DR,4618,5240,12083,01.026,551
2022-08-13T12:49:29,42.805,6.029,CST-1368DR,4618,5240,12083,01.026,551
2022-08-13T12:52:31,42.805,6.029,CST-1368DR,4618,5240,12083,01.026,551
2022-08-13T12:55:32,42.805,6.029,CST-1368DR,4618,5240,12084,01.026,551
2022-08-13T12:58:34,42.805,6.029,CST-1368DR,4618,5239,12080,01.027,551
2022-08-13T13:01:36,42.805,6.029,CST-1368DR,4618,5238,12079,01.027,551
2022-08-13T13:04:37,42.805,6.029,CST-1368DR,4618,5238,12078,01.028,551
2022-08-13T13:07:39,42.805,6.029,CST-1368DR,4618,5242,12088,01.024,551
2022-08-13T13:10:40,42.805,6.029,CST-1368DR,4618,5241,12086,01.025,551
2022-08-13T13:13:42,42.805,6.029,CST-1368DR,4618,5239,12082,01.026,551
2022-08-13T13:16:44,42.805,6.029,CST-1368DR,4618,5239,12082,01.026,551
2022-08-13T13:19:45,42.805,6.029,CST-1368DR,4618,5240,12082,01.026,551
2022-08-13T13:22:47,42.805,6.029,CST-1368DR,4618,5240,12084,01.026,551
2022-08-13T13:25:48,42.805,6.029,CST-1368DR,4618,5240,12084,01.026,551
2022-08-13T13:28:50,42.805,6.029,CST-1368DR,4618,5240,12083,01.026,551
2022-08-13T13:31:51,42.805,6.029,CST-1368DR,4618,5240,12084,01.026,551
2022-08-13T13:34:53,42.805,6.029,CST-1368DR,4618,5240,12083,01.026,551
2022-08-13T13:37:55,42.805,6.029,CST-1368DR,4618,5239,12080,01.027,551
2022-08-13T13:40:56,42.805,6.029,CST-1368DR,4618,5241,12084,01.026,551
2022-08-13T13:43:58,42.805,6.029,CST-1368DR,4618,5235,12072,01.030,551
2022-08-13T13:46:59,42.805,6.029,CST-1368DR,4618,5236,12073,01.029,551
2022-08-13T13:50:01,42.805,6.029,CST-1368DR,4618,5235,12072,01.030,551
2022-08-13T13:53:03,42.805,6.029,CST-1368DR,4618,5235,12072,01.030,551
2022-08-13T13:56:04,42.805,6.029,CST-1368DR,4618,5235,12072,01.030,551
2022-08-13T13:59:06,42.805,6.029,CST-1368DR,4618,5236,12074,01.029,551
2022-08-13T14:02:07,42.805,6.029,CST-1368DR,4618,5232,12065,01.032,551
2022-08-13T14:05:09,42.805,6.029,CST-1368DR,4618,5237,12075,01.029,551
2022-08-13T14:08:10,42.805,6.029,CST-1368DR,4618,5237,12076,01.028,551
2022-08-13T14:11:12,42.805,6.029,CST-1368DR,4618,5238,12078,01.028,551
2022-08-13T14:14:14,42.805,6.029,CST-1368DR,4618,5237,12075,01.029,551
2022-08-13T14:17:15,42.805,6.029,CST-1368DR,4618,5238,12078,01.028,551
2022-08-13T14:20:17,42.805,6.029,CST-1368DR,4618,5236,12075,01.029,551
2022-08-13T14:23:18,42.805,6.029,CST-1368DR,4618,5238,12078,01.028,551
2022-08-13T14:26:20,42.805,6.029,CST-1368DR,4618,5235,12071,01.030,551
2022-08-13T14:29:21,42.805,6.029,CST-1368DR,4618,5237,12076,01.028,551
2022-08-13T14:32:23,42.805,6.029,CST-1368DR,4618,5237,12076,01.028,551
2022-08-13T14:35:25,42.805,6.029,CST-1368DR,4618,5238,12079,01.027,551
2022-08-13T14:38:26,42.805,6.029,CST-1368DR,4618,5238,12078,01.028,551
2022-08-13T14:41:28,42.805,6.029,CST-1368DR,4618,5238,12078,01.028,551
2022-08-13T14:44:29,42.805,6.029,CST-1368DR,4618,5238,12079,01.027,551
2022-08-13T14:47:31,42.805,6.029,CST-1368DR,4618,5239,12080,01.027,551
2022-08-13T14:50:33,42.805,6.029,CST-1368DR,4618,5238,12078,01.028,551
2022-08-13T14:53:34,42.805,6.029,CST-1368DR,4618,5238,12078,01.028,551
2022-08-13T14:56:36,42.805,6.029,CST-1368DR,4618,5238,12078,01.028,551
2022-08-13T14:59:37,42.805,6.029,CST-1368DR,4618,5236,12075,01.029,551
2022-08-13T15:02:39,42.805,6.029,CST-1368DR,4618,5238,12078,01.028,551
2022-08-13T15:05:40,42.805,6.029,CST-1368DR,4618,5237,12076,01.028,551
2022-08-13T15:08:42,42.805,6.029,CST-1368DR,4618,5236,12074,01.029,551
2022-08-13T15:11:44,42.805,6.029,CST-1368DR,4618,5238,12079,01.027,551
2022-08-13T15:14:45,42.805,6.029,CST-1368DR,4618,5239,12081,01.027,551
2022-08-13T15:17:47,42.805,6.029,CST-1368DR,4618,5239,12082,01.026,551
2022-08-13T15:20:48,42.805,6.029,CST-1368DR,4618,5237,12076,01.028,551
2022-08-13T15:23:50,42.805,6.029,CST-1368DR,4618,5238,12079,01.027,551
2022-08-13T15:26:51,42.805,6.029,CST-1368DR,4618,5239,12080,01.027,551
2022-08-13T15:29:53,42.805,6.029,CST-1368DR,4618,5238,12079,01.027,551
2022-08-13T15:32:55,42.805,6.029,CST-1368DR,4618,5239,12080,01.027,551
2022-08-13T15:35:56,42.805,6.029,CST-1368DR,4618,5238,12079,01.027,551
2022-08-13T15:38:58,42.805,6.029,CST-1368DR,4618,5238,12078,01.028,551
2022-08-13T15:41:59,42.805,6.029,CST-1368DR,4618,5239,12080,01.027,551
2022-08-13T15:45:01,42.805,6.029,CST-1368DR,4618,5239,12081,01.027,551
2022-08-13T15:48:03,42.805,6.029,CST-1368DR,4618,5239,12082,01.026,551
2022-08-13T15:51:04,42.805,6.029,CST-1368DR,4618,5238,12079,01.027,550
2022-08-13T15:54:06,42.805,6.029,CST-1368DR,4618,5237,12076,01.028,551
2022-08-13T15:57:07,42.805,6.029,CST-1368DR,4618,5239,12081,01.027,551
2022-08-13T16:00:09,42.805,6.029,CST-1368DR,4618,5239,12081,01.027,551
2022-08-13T16:03:10,42.805,6.029,CST-1368DR,4618,5239,12081,01.027,551
2022-08-13T16:06:12,42.805,6.029,CST-1368DR,4618,5239,12082,01.026,551
2022-08-13T16:09:14,42.805,6.029,CST-1368DR,4618,5239,12081,01.027,551
2022-08-13T16:12:15,42.805,6.029,CST-1368DR,4618,5240,12082,01.026,551
2022-08-13T16:15:17,42.805,6.029,CST-1368DR,4618,5240,12083,01.026,551
2022-08-13T16:18:18,42.805,6.029,CST-1368DR,4618,5238,12078,01.028,551
2022-08-13T16:21:20,42.805,6.029,CST-1368DR,4618,5239,12082,01.026,551
2022-08-13T16:24:22,42.805,6.029,CST-1368DR,4617,5238,12081,01.027,551
2022-08-13T16:27:23,42.805,6.029,CST-1368DR,4618,5238,12078,01.028,551
2022-08-13T16:30:25,42.805,6.029,CST-1368DR,4618,5239,12080,01.027,551
2022-08-13T16:33:26,42.805,6.029,CST-1368DR,4618,5238,12078,01.028,551
2022-08-13T16:36:28,42.805,6.029,CST-1368DR,4618,5240,12083,01.026,551
2022-08-13T16:39:29,42.805,6.029,CST-1368DR,4618,5240,12083,01.026,551
2022-08-13T16:42:31,42.805,6.029,CST-1368DR,4618,5240,12083,01.026,551